{"data":{"norad_id":58029,"epoch":"2026-09-20T23:33:46.667232Z","epoch_age_seconds":96047,"freshness":"FRESH","line1":"1 58029U 23156B   26263.98179013  .00002183  00000+0  75733-4 0  9990","line2":"2 58029  53.1596 249.3189 0001071  89.2678 270.8447 15.34394961166246","mean_motion":15.34394961,"eccentricity":0.0001071,"inclination_deg":53.1596,"raan_deg":249.3189,"arg_perigee_deg":89.2678,"mean_anomaly_deg":270.8447,"bstar":7.5733e-5,"rev_number":16624,"period_min":93.848066280244,"perigee_km":461.98556162425,"apogee_km":463.45087281178,"semimajor_km":6840.855217218,"source":"CELESTRAK","updated_at":"2026-09-21T09:00:33.757762Z"}}